Weather History for KCOU - February, 2014

Change the Weather History Date:

Wednesday, February 19, 2014

  Actual Average Record
Temperature  
Mean Temperature 43 °F 36 °F  
Max Temperature 52 °F 45 °F 76 °F (1930)
Min Temperature 34 °F 26 °F -6 °F (1903)
Degree Days  
Heating Degree Days 22 29  
Month to date heating degree days 821 608  
Since 1 July heating degree days 4139 3697  
Cooling Degree Days 0 0  
Month to date cooling degree days 0 0  
Year to date cooling degree days 0 0  
Moisture  
Dew Point 32 °F    
Average Humidity 66    
Maximum Humidity 82    
Minimum Humidity 50    
Precipitation  
Precipitation 0.07 in 0.08 in 1.80 in (1892)
Month to date precipitation 1.36 1.47  
Year to date precipitation 2.26 3.39  
Snow  
Snow 0.00 in 0.20 in 11.80 in (1938)
Month to date snowfall 7.4 3.5  
Since 1 July snowfall 17.3 14.9  
Snow Depth 0.00 in    
Sea Level Pressure  
Sea Level Pressure 29.89 in    
Wind  
Wind Speed 9 mph (SSE)    
Max Wind Speed 18 mph    
Max Gust Speed 24 mph    
Visibility 10 miles    
Events Rain , Thunderstorm    
T = Trace of Precipitation, MM = Missing Value Source: NWS Daily Summary

Daily Weather History Graph

Daily Weather History Graph

Search for Another Location

Airport or City:

Trip Planner

Search our weather history database for the weather conditions in past years. The results will help you decide how hot, cold, wet, or windy it might be!

Date:

Astronomy

Feb. 19, 2014 Rise Set
Actual Time 6:54 AM CST 5:51 PM CST
Civil Twilight 6:27 AM CST 6:18 PM CST
Nautical Twilight 5:56 AM CST 6:49 PM CST
Astronomical Twilight 5:26 AM CST 7:20 PM CST
Moon 10:41 PM CST (2/19) 9:04 AM CST (2/19)
Length of Visible Light 11h 50m
Length of Day
10h 56m
Waning Gibbous, 79% of the Moon is Illuminated
Feb 19
Waning Gibbous
Feb 22
Last Quarter
Mar 1
New
Mar 8
First Quarter
Mar 16
Full

Hourly Weather History & Observations

Time (CST) Temp. Windchill Dew Point Humidity Pressure Visibility Wind Dir Wind Speed Gust Speed Precip Events Conditions
12:54 AM 43.0 °F 36.8 °F 30.9 °F 62% 29.91 in 10.0 mi NW 11.5 mph - N/A   Clear
1:54 AM 41.0 °F 36.4 °F 30.0 °F 65% 29.92 in 10.0 mi WNW 6.9 mph - N/A   Clear
2:54 AM 39.0 °F 33.4 °F 30.0 °F 70% 29.94 in 10.0 mi WNW 8.1 mph - N/A   Clear
3:54 AM 37.9 °F 32.1 °F 30.0 °F 73% 29.94 in 10.0 mi WNW 8.1 mph - N/A   Clear
4:54 AM 37.0 °F 32.4 °F 28.9 °F 73% 29.96 in 10.0 mi West 5.8 mph - N/A   Clear
5:54 AM 37.0 °F 32.4 °F 30.0 °F 76% 29.96 in 10.0 mi West 5.8 mph - N/A   Clear
6:54 AM 36.0 °F 31.1 °F 28.9 °F 76% 29.99 in 10.0 mi West 5.8 mph - N/A   Clear
7:54 AM 36.0 °F 31.1 °F 30.0 °F 79% 30.01 in 10.0 mi West 5.8 mph - N/A   Clear
8:54 AM 39.9 °F 36.7 °F 32.0 °F 73% 30.02 in 10.0 mi SW 4.6 mph - N/A   Clear
9:54 AM 42.1 °F 37.7 °F 33.1 °F 70% 30.03 in 10.0 mi SW 6.9 mph - N/A   Clear
10:54 AM 44.1 °F 41.5 °F 34.0 °F 68% 30.04 in 10.0 mi SW 4.6 mph - N/A   Clear
11:54 AM 46.9 °F - 34.0 °F 61% 30.02 in 10.0 mi SSE 3.5 mph - N/A   Clear
12:54 PM 48.9 °F - 34.0 °F 56% 29.99 in 10.0 mi SSE 8.1 mph - N/A   Clear
1:54 PM 52.0 °F - 33.1 °F 49% 29.94 in 10.0 mi SE 9.2 mph - N/A   Clear
2:54 PM 51.1 °F - 33.1 °F 50% 29.91 in 10.0 mi ESE 5.8 mph - N/A   Clear
3:54 PM 51.1 °F - 34.0 °F 52% 29.89 in 10.0 mi ESE 5.8 mph - N/A   Clear
4:54 PM 50.0 °F - 33.1 °F 52% 29.90 in 10.0 mi SE 5.8 mph - N/A   Clear
5:54 PM 46.9 °F - 33.1 °F 59% 29.84 in 10.0 mi East 10.4 mph - N/A   Clear
6:54 PM 48.0 °F - 32.0 °F 54% 29.83 in 10.0 mi ESE 13.8 mph - N/A   Scattered Clouds
7:54 PM 48.0 °F - 30.9 °F 52% 29.78 in 10.0 mi ESE 17.3 mph - N/A   Partly Cloudy
8:54 PM 48.0 °F - 32.0 °F 54% 29.77 in 10.0 mi ESE 16.1 mph 24.2 mph N/A Thunderstorm Overcast
9:06 PM 46.0 °F 39.0 °F 34.0 °F 63% 29.81 in 10.0 mi NNW 17.3 mph - 0.00 in Rain , Thunderstorm Light Thunderstorms and Rain
9:21 PM 45.0 °F 40.6 °F 35.1 °F 68% 29.79 in 10.0 mi NNE 8.1 mph - 0.06 in Rain Light Rain
9:54 PM 44.1 °F 39.0 °F 36.0 °F 73% 29.77 in 10.0 mi ENE 9.2 mph - 0.07 in   Overcast
10:18 PM 44.1 °F 37.4 °F 36.0 °F 73% 29.72 in 10.0 mi East 13.8 mph - N/A   Overcast
10:54 PM 46.0 °F 39.9 °F 35.1 °F 66% 29.70 in 10.0 mi ESE 13.8 mph - N/A   Overcast
11:54 PM 46.0 °F 39.9 °F 35.1 °F 66% 29.66 in 10.0 mi SE 13.8 mph - N/A   Overcast